Location: Castle
(40.7167°S, 175.9500°E)
Time: 22:12:13
(UTC+00:00)

ACS3 Solar Sail - Visible Passes

Search period start: 13 October 2024 00:00
Search period end: 23 October 2024 00:00
Orbit: 960 x 1033 km, 97.5° (Epoch: 13 October)

Date Brightness Start Highest point End Pass type
(mag) Time Alt. Az. Time Alt. Az. Time Alt. Az.
13 Oct 2.5 08:02:34 10° SSE 08:08:17 33° E 08:10:22 27° NE visible
13 Oct 3.0 09:46:16 10° S 09:52:10 41° WSW 09:55:30 24° WNW visible
14 Oct 1.9 08:33:13 10° SSE 08:39:34 59° E 08:42:07 36° NNE visible
14 Oct 3.8 10:18:01 10° SSW 10:22:56 24° WSW 10:27:14 12° WNW visible
15 Oct 3.3 07:22:27 10° SE 07:26:09 16° E 07:28:44 13° ENE visible
15 Oct 1.9 09:04:13 10° S 09:10:40 81° WSW 09:13:51 33° NNW visible
15 Oct 4.4 10:50:31 10° SSW 10:53:31 14° WSW 10:56:32 10° W visible
16 Oct 2.7 07:52:08 10° SE 07:57:37 29° E 08:00:28 21° NE visible
16 Oct 2.8 09:35:32 10° S 09:41:37 47° WSW 09:45:35 21° NW visible
17 Oct 2.0 08:22:39 10° SSE 08:28:55 51° E 08:32:11 28° NNE visible
17 Oct 3.6 10:07:10 10° S 10:12:25 27° WSW 10:17:18 11° WNW visible
18 Oct 3.5 07:12:28 10° ESE 07:15:23 13° E 07:18:17 10° ENE visible
18 Oct 1.8 08:53:34 10° SSE 09:00:03 89° ENE 09:03:54 26° NNW visible
18 Oct 4.3 10:39:21 10° SSW 10:43:01 16° WSW 10:46:41 10° W visible
19 Oct 2.9 07:41:42 10° SE 07:46:52 25° E 07:50:30 16° NE visible
19 Oct 2.5 09:24:46 10° S 09:31:01 54° WSW 09:35:37 19° NW visible
20 Oct 2.2 08:12:03 10° SSE 08:18:12 44° E 08:22:13 21° NNE visible
20 Oct 3.5 09:56:17 10° S 10:01:49 31° WSW 10:07:20 10° NW visible
21 Oct 1.8 08:42:52 10° SSE 08:49:21 78° ENE 08:53:55 21° N visible
21 Oct 4.2 10:28:16 10° SSW 10:32:27 19° WSW 10:36:39 10° WNW visible
22 Oct 3.1 07:31:16 10° SE 07:36:04 21° E 07:40:29 11° NE visible
22 Oct 2.3 09:13:59 10° S 09:20:20 62° WSW 09:25:36 16° NNW visible
22 Oct 4.7 11:02:13 10° SW 11:02:55 10° SW 11:03:35 10° WSW visible
